Los Alamitos, CA

12:19 AM PST on February 09, 2016 (GMT -0800)
Los Alamitos Army Air Field

Weather History for KSLI - April, 2013

Change the Weather History Date:

Sunday, April 28, 2013

  Actual Average Record
Temperature  
Mean Temperature 64 °F -  
Max Temperature 70 °F 70 °F 93 °F (2008)
Min Temperature 57 °F 57 °F 53 °F (1999)
Degree Days  
Heating Degree Days 2    
Growing Degree Days 14 (Base 50)    
Moisture  
Dew Point 57 °F    
Average Humidity 81    
Maximum Humidity 100    
Minimum Humidity 59    
Precipitation  
Precipitation 0.00 in - - ()
Sea Level Pressure  
Sea Level Pressure 29.93 in    
Wind  
Wind Speed 5 mph (South)    
Max Wind Speed 12 mph    
Max Gust Speed -    
Visibility 10 miles    
Events      
Averages and records for this station are not official NWS values.
T = Trace of Precipitation, MM = Missing Value Source: NWS Daily Summary

Daily Weather History Graph

Daily Weather History Graph

Search for Another Location

Airport or City:

Trip Planner

Search our weather history database for the weather conditions in past years. The results will help you decide how hot, cold, wet, or windy it might be!

Date:

Astronomy

Apr. 28, 2013 Rise Set
Actual Time 6:06 AM PDT 7:33 PM PDT
Civil Twilight 5:39 AM PDT 8:00 PM PDT
Nautical Twilight 5:08 AM PDT 8:31 PM PDT
Astronomical Twilight 4:35 AM PDT 9:05 PM PDT
Moon 11:03 PM PDT (4/28) 8:32 AM PDT (4/28)
Length of Visible Light 14h 20m
Length of Day
13h 27m
Waning Gibbous, 88% of the Moon is Illuminated
Apr 28
Waning Gibbous
May 2
Last Quarter
May 9
New
May 17
First Quarter
May 24
Full

Hourly Weather History & Observations

Time (PDT) Temp. Dew Point Humidity Pressure Visibility Wind Dir Wind Speed Gust Speed Precip Events Conditions
7:58 AM 60.3 °F 59.9 °F 99% 30.01 in 10.0 mi ENE 3.5 mph - N/A   Overcast
8:58 AM 61.2 °F 59.0 °F 93% 30.01 in 10.0 mi Calm Calm - N/A   Mostly Cloudy
9:28 AM 62.6 °F 57.2 °F 82% 29.99 in 10.0 mi Calm Calm - N/A   Mostly Cloudy
9:53 AM 64.4 °F 55.4 °F 73% 29.99 in 10.0 mi SW 4.6 mph - N/A   Scattered Clouds
9:58 AM 64.4 °F 55.9 °F 74% 29.99 in 10.0 mi West 3.5 mph - N/A   Scattered Clouds
10:58 AM 68.4 °F 54.7 °F 62% 29.99 in 10.0 mi SSW 9.2 mph - N/A   Partly Cloudy
11:58 AM 68.2 °F 55.2 °F 63% 29.98 in 10.0 mi WSW 8.1 mph - N/A   Partly Cloudy
12:58 PM 68.5 °F 55.0 °F 62% 29.96 in 10.0 mi South 11.5 mph - N/A   Partly Cloudy
1:58 PM 69.4 °F 54.3 °F 59% 29.94 in 10.0 mi SW 9.2 mph - N/A   Partly Cloudy
2:58 PM 70.0 °F 55.0 °F 59% 29.92 in 10.0 mi SSW 10.4 mph - N/A   Partly Cloudy
3:58 PM 69.1 °F 55.8 °F 62% 29.89 in 10.0 mi South 10.4 mph - N/A   Clear
4:58 PM 69.4 °F 55.9 °F 62% 29.87 in 10.0 mi SSW 10.4 mph - N/A   Clear
5:58 PM 67.5 °F 55.2 °F 65% 29.87 in 10.0 mi South 8.1 mph - N/A   Clear
6:58 PM 64.9 °F 57.2 °F 76% 29.87 in 10.0 mi South 6.9 mph - N/A   Clear
7:58 PM 61.9 °F 61.9 °F 100% 29.88 in 10.0 mi South 5.8 mph - N/A   Clear
8:58 PM 59.2 °F 59.2 °F 100% 29.90 in 10.0 mi SSE 6.9 mph - N/A   Clear
9:55 PM 57.2 °F 57.2 °F 100% 29.90 in 10.0 mi SSE 5.8 mph - N/A   Partly Cloudy
9:58 PM 57.9 °F 57.9 °F 100% 29.91 in 10.0 mi SSE 6.9 mph - N/A   Partly Cloudy
10:08 PM 57.2 °F 57.2 °F 100% 29.91 in 10.0 mi South 8.1 mph - N/A   Mostly Cloudy
10:58 PM 57.7 °F 57.6 °F 99% 29.92 in 10.0 mi South 5.8 mph - N/A   Overcast
11:38 PM 57.2 °F 57.2 °F 100% 29.91 in 10.0 mi Variable 3.5 mph - N/A   Overcast
11:58 PM 57.9 °F 57.9 °F 100% 29.92 in 10.0 mi SE 4.6 mph - N/A   Overcast